Location: ActonStarParty
(42.4766°N, 71.4538°W)
Time: 01:54:16
(UTC-04:00)

Amateur Radio Satellites - All Passes

Search period start: 23 October 2014 01:24
Search period end: 24 October 2014 01:24
Location: ActonStarParty, 42.4766°N, 71.4538°W

Satellite Date Start Highest point End Downlink Frequencies (MHz)
Time Altitude Azimuth
Oscar 16 23 Oct 01:24:58 01:28:56 22° 93° (E) 01:32:51 437.025 USB, Beacon 2401.1428
AO-Echo 23 Oct 01:38:16 01:41:31 16° 90° (E) 01:44:45 ?
Uribyol 2 23 Oct 01:41:51 01:44:16 13° 89° (E) 01:46:40 436.500 FM
ITAMSAT 1 23 Oct 01:47:05 01:49:46 14° 90° (E) 01:52:27 435.822 SSB
Oscar 19 23 Oct 02:18:00 02:23:07 68° 102° (ESE) 02:28:12 437.125 CW, 437.150 USB
AO-27 23 Oct 02:30:28 02:35:19 37° 97° (E) 02:40:07 436.795 MHz FM
Oscar 16 23 Oct 03:03:36 03:08:29 46° 290° (WNW) 03:13:20 437.025 USB, Beacon 2401.1428
JAS-1B 23 Oct 03:04:16 03:10:44 72° 287° (WNW) 03:18:27 435.800 - 435.900 CW/SSB
Sapphire 23 Oct 03:04:25 03:06:53 13° 103° (ESE) 03:09:21 437.095 MHz 1200 baud AX-25 AFSK
AO-Echo 23 Oct 03:15:27 03:20:43 67° 287° (WNW) 03:25:59 ?
Uribyol 2 23 Oct 03:19:05 03:24:19 77° 286° (WNW) 03:29:30 436.500 FM
RS-15 23 Oct 03:23:46 03:31:49 22° 359° (N) 03:40:00 29.354 - 29.394 USB, Beacon 29.352 USB
ITAMSAT 1 23 Oct 03:24:34 03:29:48 73° 286° (WNW) 03:34:59 435.822 SSB
PCSat 23 Oct 03:25:13 03:29:22 23° 107° (ESE) 03:33:33 145.825 MHz
Gurwin Techsat 1B 23 Oct 03:31:55 03:37:15 72° 102° (ESE) 03:42:32 435.225 FM
AO-7 23 Oct 03:33:47 03:38:50 17° 89° (E) 03:43:52 29.400 - 29.500 MHz
TMSAT-1 23 Oct 03:44:32 03:49:51 70° 102° (ESE) 03:55:08 436.925 FM
Oscar 19 23 Oct 03:58:47 04:01:53 16° 299° (WNW) 04:04:59 437.125 CW, 437.150 USB
OPAL 23 Oct 04:01:11 04:05:27 27° 63° (ENE) 04:09:42 ?
AO-27 23 Oct 04:10:13 04:14:41 29° 294° (WNW) 04:19:08 436.795 MHz FM
Sapphire 23 Oct 04:44:06 04:49:31 85° 300° (WNW) 04:54:59 437.095 MHz 1200 baud AX-25 AFSK
JAS-1B 23 Oct 04:57:47 05:00:32 13° 304° (NW) 05:03:27 435.800 - 435.900 CW/SSB
Uosat F 23 Oct 04:58:36 05:03:32 51° 100° (E) 05:08:25 435.120 FM
Uribyol 2 23 Oct 05:01:34 05:02:53 11° 304° (NW) 05:04:13 436.500 FM
PCSat 23 Oct 05:07:08 05:12:24 53° 305° (NW) 05:17:43 145.825 MHz
ITAMSAT 1 23 Oct 05:07:27 05:08:21 10° 304° (NW) 05:09:15 435.822 SSB
Gurwin Techsat 1B 23 Oct 05:13:21 05:16:36 17° 300° (WNW) 05:19:51 435.225 FM
JAS-2 23 Oct 05:14:47 05:21:21 29° 92° (E) 05:27:54 435.800 - 435.900 CW/SSB, 435.910 FM
AO-7 23 Oct 05:24:21 05:32:44 85° 108° (ESE) 05:41:05 29.400 - 29.500 MHz
TMSAT-1 23 Oct 05:25:52 05:29:11 17° 300° (WNW) 05:32:30 436.925 FM
RS-15 23 Oct 05:38:47 05:48:44 36° 34° (NNE) 05:58:57 29.354 - 29.394 USB, Beacon 29.352 USB
OPAL 23 Oct 05:39:18 05:44:09 40° 260° (W) 05:48:57 ?
STRAND 1 23 Oct 05:42:28 05:46:33 25° 64° (ENE) 05:50:40 ?
Hamsat 23 Oct 05:53:21 05:56:49 25° 95° (E) 06:00:18 145.90 MHz
Sapphire 23 Oct 06:30:21 06:33:47 17° 320° (NW) 06:37:14 437.095 MHz 1200 baud AX-25 AFSK
Uosat F 23 Oct 06:38:14 06:41:57 21° 297° (WNW) 06:45:38 435.120 FM
Saudisat 1A 23 Oct 06:52:29 06:53:57 12° 108° (ESE) 06:55:26 436.775 MHz
PCSat 23 Oct 06:55:16 06:57:07 12° 327° (NNW) 06:58:59 145.825 MHz
SO-67 23 Oct 06:55:59 06:57:48 14° 92° (E) 06:59:36 435.3500 MHz FM
JAS-2 23 Oct 06:59:06 07:06:42 64° 289° (WNW) 07:14:25 435.800 - 435.900 CW/SSB, 435.910 FM
AO-7 23 Oct 07:18:21 07:24:34 24° 308° (NW) 07:30:48 29.400 - 29.500 MHz
STRAND 1 23 Oct 07:20:37 07:25:29 43° 261° (W) 07:30:24 ?
Hamsat 23 Oct 07:29:09 07:32:44 28° 291° (WNW) 07:36:20 145.90 MHz
RS-15 23 Oct 07:51:15 08:02:27 85° 239° (WSW) 08:14:09 29.354 - 29.394 USB, Beacon 29.352 USB
HO-68 23 Oct 08:16:37 08:20:25 15° 88° (E) 08:24:12 435.675 MHz FM
SO-67 23 Oct 08:27:46 08:30:54 33° 288° (WNW) 08:34:02 435.3500 MHz FM
Saudisat 1A 23 Oct 08:28:30 08:32:53 77° 305° (NW) 08:37:18 436.775 MHz
MaSat-1 23 Oct 08:43:56 08:45:05 12° 50° (NE) 08:46:12 437.345 MHz
JAS-2 23 Oct 08:46:29 08:50:20 15° 308° (NW) 08:54:15 435.800 - 435.900 CW/SSB, 435.910 FM
Oscar 11 23 Oct 09:37:48 09:40:54 19° 93° (E) 09:43:59 145.825 FM, Beacon 2401.500 USB
HO-68 23 Oct 10:01:51 10:09:06 85° 106° (ESE) 10:16:18 435.675 MHz FM
RS-15 23 Oct 10:05:36 10:13:12 21° 260° (W) 10:21:03 29.354 - 29.394 USB, Beacon 29.352 USB
Saudisat 1A 23 Oct 10:11:04 10:13:12 13° 324° (NW) 10:15:21 436.775 MHz
MaSat-1 23 Oct 10:18:45 10:20:49 21° 252° (WSW) 10:22:45 437.345 MHz
ZACube-1 23 Oct 10:21:43 10:25:11 24° 94° (E) 10:28:34 437.345 MHz
UKube-1 23 Oct 10:29:44 10:34:08 75° 103° (ESE) 10:38:29 145.840 MHz, 145.915 MHz
KITSAT 1 23 Oct 10:38:26 10:39:19 10° 96° (E) 10:40:12 435.175 FM
FUNcube-1 23 Oct 11:06:19 11:10:37 75° 102° (ESE) 11:14:48 145.950 - 145.970 MHz USB
Oscar 11 23 Oct 11:13:13 11:17:13 38° 289° (WNW) 11:21:12 145.825 FM, Beacon 2401.500 USB
Sapphire 23 Oct 11:49:14 11:52:46 17° 40° (NE) 11:56:17 437.095 MHz 1200 baud AX-25 AFSK
HO-68 23 Oct 11:50:55 11:55:57 21° 305° (NW) 12:00:59 435.675 MHz FM
ZACube-1 23 Oct 11:57:51 12:01:35 30° 291° (WNW) 12:05:15 437.345 MHz
Oscar 19 23 Oct 11:59:17 12:01:59 14° 59° (ENE) 12:04:40 437.125 CW, 437.150 USB
JAS-1B 23 Oct 12:04:11 12:07:28 16° 58° (ENE) 12:10:42 435.800 - 435.900 CW/SSB
SO-50 23 Oct 12:05:51 12:07:10 11° 107° (ESE) 12:08:29 436.795 FM
UKube-1 23 Oct 12:08:08 12:09:42 12° 300° (WNW) 12:11:16 145.840 MHz, 145.915 MHz
PCSat 23 Oct 12:11:29 12:15:56 25° 46° (NE) 12:20:21 145.825 MHz
KITSAT 1 23 Oct 12:25:09 12:33:03 62° 115° (ESE) 12:40:59 435.175 FM
ISS 23 Oct 12:26:04 12:28:02 15° 131° (SE) 12:30:01 145.800 FM
Oscar 16 23 Oct 12:42:22 12:47:01 35° 68° (ENE) 12:51:40 437.025 USB, Beacon 2401.1428
FUNcube-1 23 Oct 12:45:13 12:46:21 11° 300° (WNW) 12:47:28 145.950 - 145.970 MHz USB
AO-Echo 23 Oct 12:51:55 12:55:34 22° 63° (ENE) 12:59:20 ?
Uribyol 2 23 Oct 12:59:42 13:03:44 23° 63° (ENE) 13:07:47 436.500 FM
ITAMSAT 1 23 Oct 13:05:11 13:09:18 24° 64° (ENE) 13:13:27 435.822 SSB
Gurwin Techsat 1B 23 Oct 13:16:22 13:19:40 17° 60° (ENE) 13:22:57 435.225 FM
TMSAT-1 23 Oct 13:28:50 13:32:00 16° 60° (ENE) 13:35:10 436.925 FM
Sapphire 23 Oct 13:31:31 13:37:00 87° 61° (ENE) 13:42:26 437.095 MHz 1200 baud AX-25 AFSK
Oscar 19 23 Oct 13:35:30 13:40:39 79° 257° (WSW) 13:45:50 437.125 CW, 437.150 USB
SO-50 23 Oct 13:42:29 13:46:58 82° 304° (NW) 13:51:38 436.795 FM
AO-27 23 Oct 13:49:08 13:54:15 60° 72° (ENE) 13:59:24 436.795 MHz FM
JAS-1B 23 Oct 13:51:30 13:57:34 76° 256° (WSW) 14:03:15 435.800 - 435.900 CW/SSB
PCSat 23 Oct 13:54:24 13:59:43 57° 245° (WSW) 14:05:00 145.825 MHz
ISS 23 Oct 14:01:03 14:04:22 70° 328° (NNW) 14:07:42 145.800 FM
Oscar 10/S400 23 Oct 14:15:32 14:32:49 40° 155° (SSE) 14:58:42 145.825 - 145.975 CW/USB, Beacon 145.810 USB
KITSAT 1 23 Oct 14:21:34 14:28:54 36° 316° (NW) 14:36:15 435.175 FM
Oscar 16 23 Oct 14:21:54 14:26:23 29° 264° (W) 14:30:52 437.025 USB, Beacon 2401.1428
AO-Echo 23 Oct 14:29:19 14:33:59 47° 261° (W) 14:38:51 ?
AO-7 23 Oct 14:33:19 14:40:02 29° 55° (NE) 14:46:45 29.400 - 29.500 MHz
Uribyol 2 23 Oct 14:37:51 14:42:53 48° 261° (W) 14:47:57 436.500 FM
Uosat F 23 Oct 14:38:52 14:39:30 10° 56° (NE) 14:40:09 435.120 FM
ITAMSAT 1 23 Oct 14:43:33 14:48:31 45° 261° (W) 14:53:32 435.822 SSB
Gurwin Techsat 1B 23 Oct 14:53:45 14:59:02 71° 258° (WSW) 15:04:22 435.225 FM
TMSAT-1 23 Oct 15:06:00 15:11:17 73° 257° (WSW) 15:16:37 436.925 FM
UOSAT-12 23 Oct 15:14:36 15:19:14 81° 122° (ESE) 15:23:58 437.025 FM, 437.400 FM
Saudisat 1A 23 Oct 15:16:07 15:18:54 16° 38° (NE) 15:21:40 436.775 MHz
Sapphire 23 Oct 15:17:18 15:19:37 13° 258° (WSW) 15:21:55 437.095 MHz 1200 baud AX-25 AFSK
SO-50 23 Oct 15:25:43 15:28:18 15° 325° (NW) 15:30:56 436.795 FM
AO-27 23 Oct 15:30:46 15:34:09 17° 269° (W) 15:37:34 436.795 MHz FM
JAS-2 23 Oct 15:31:50 15:34:01 12° 50° (NE) 15:36:16 435.800 - 435.900 CW/SSB, 435.910 FM
ISS 23 Oct 15:38:55 15:41:31 20° 347° (NNW) 15:44:07 145.800 FM
Uosat F 23 Oct 16:12:24 16:17:24 76° 74° (ENE) 16:22:27 435.120 FM
KITSAT 1 23 Oct 16:23:01 16:27:08 14° 344° (NNW) 16:31:16 435.175 FM
AO-7 23 Oct 16:23:54 16:32:08 71° 254° (WSW) 16:40:26 29.400 - 29.500 MHz
Hamsat 23 Oct 16:47:44 16:50:51 20° 67° (ENE) 16:53:57 145.90 MHz
Saudisat 1A 23 Oct 16:54:36 16:59:02 81° 238° (WSW) 17:03:27 436.775 MHz
UOSAT-12 23 Oct 16:56:48 16:59:58 18° 322° (NW) 17:03:11 437.025 FM, 437.400 FM
JAS-2 23 Oct 17:11:46 17:17:34 65° 71° (ENE) 17:24:11 435.800 - 435.900 CW/SSB, 435.910 FM
ISS 23 Oct 17:16:43 17:19:06 18° 7° (N) 17:21:29 145.800 FM
OPAL 23 Oct 17:48:16 17:53:05 48° 102° (ESE) 17:57:51 ?
Uosat F 23 Oct 17:54:32 17:56:44 13° 271° (W) 17:58:56 435.120 FM
KITSAT 1 23 Oct 18:22:40 18:26:45 14° 16° (NNE) 18:30:50 435.175 FM
Hamsat 23 Oct 18:22:42 18:26:34 35° 263° (W) 18:30:27 145.90 MHz
AO-7 23 Oct 18:22:57 18:26:19 13° 273° (W) 18:29:43 29.400 - 29.500 MHz
HO-68 23 Oct 18:47:43 18:51:13 14° 50° (NE) 18:54:44 435.675 MHz FM
ISS 23 Oct 18:53:13 18:56:26 43° 27° (NNE) 18:59:38 145.800 FM
JAS-2 23 Oct 18:59:08 19:03:21 20° 273° (W) 19:07:57 435.800 - 435.900 CW/SSB, 435.910 FM
SO-67 23 Oct 19:00:20 19:03:45 80° 76° (ENE) 19:07:13 435.3500 MHz FM
OPAL 23 Oct 19:27:55 19:31:38 22° 299° (WNW) 19:35:20 ?
STRAND 1 23 Oct 19:30:14 19:35:21 61° 101° (ESE) 19:40:26 ?
AO-40 23 Oct 19:45:32 23:15:21 28° 127° (SE) 00:39:38 Beacon 2401.320
RS-15 23 Oct 20:13:34 20:15:58 11° 94° (E) 20:18:21 29.354 - 29.394 USB, Beacon 29.352 USB
KITSAT 1 23 Oct 20:17:42 20:25:01 36° 43° (NE) 20:32:18 435.175 FM
ISS 23 Oct 20:30:09 20:33:00 26° 224° (SW) 20:35:51 145.800 FM
HO-68 23 Oct 20:30:33 20:37:38 68° 70° (ENE) 20:44:46 435.675 MHz FM
SO-50 23 Oct 20:33:44 20:37:09 19° 39° (NE) 20:40:34 436.795 FM
Oscar 11 23 Oct 20:33:58 20:36:50 18° 65° (ENE) 20:39:43 145.825 FM, Beacon 2401.500 USB
STRAND 1 23 Oct 21:10:35 21:14:03 19° 299° (WNW) 21:17:31 ?
ZACube-1 23 Oct 21:18:42 21:22:21 24° 67° (ENE) 21:25:57 437.345 MHz
UKube-1 23 Oct 21:25:33 21:29:52 70° 74° (ENE) 21:34:14 145.840 MHz, 145.915 MHz
FUNcube-1 23 Oct 22:02:40 22:07:13 65° 74° (ENE) 22:11:44 145.950 - 145.970 MHz USB
UOSAT-12 23 Oct 22:04:48 22:07:34 15° 36° (NE) 22:10:18 437.025 FM, 437.400 FM
Oscar 11 23 Oct 22:08:31 22:12:41 45° 261° (W) 22:16:51 145.825 FM, Beacon 2401.500 USB
KITSAT 1 23 Oct 22:12:57 22:20:53 63° 245° (WSW) 22:28:47 435.175 FM
SO-50 23 Oct 22:13:25 22:18:16 78° 238° (WSW) 22:23:09 436.795 FM
RS-15 23 Oct 22:15:05 22:25:48 61° 115° (ESE) 22:36:26 29.354 - 29.394 USB, Beacon 29.352 USB
HO-68 23 Oct 22:20:24 22:25:52 23° 268° (W) 22:31:24 435.675 MHz FM
ZACube-1 23 Oct 22:54:18 22:58:32 36° 263° (W) 23:02:45 437.345 MHz
UKube-1 23 Oct 23:05:30 23:06:32 11° 270° (W) 23:07:35 145.840 MHz, 145.915 MHz
FUNcube-1 23 Oct 23:41:57 23:44:00 13° 270° (W) 23:46:02 145.950 - 145.970 MHz USB
UOSAT-12 23 Oct 23:43:44 23:48:29 81° 56° (NE) 23:53:08 437.025 FM, 437.400 FM
MaSat-1 23 Oct 23:55:00 23:59:07 58° 114° (ESE) 00:02:52 437.345 MHz
KITSAT 1 24 Oct 00:13:15 00:14:39 11° 263° (W) 00:16:02 435.175 FM
RS-15 24 Oct 00:28:14 00:38:34 45° 319° (NW) 00:49:00 29.354 - 29.394 USB, Beacon 29.352 USB
Oscar 16 24 Oct 00:55:55 00:57:10 11° 88° (E) 00:58:24 437.025 USB, Beacon 2401.1428
